owner,sensor,date,latitude,longitude,vertical_datum,direction_of_sea_water_velocity,sea_water_speed,upward_sea_water_velocity,qcFlag 
TABS,ioos:station:wmo:42044:1,2009-02-01T00:00:00Z,26.1914,-97.0507,2.0,359.8720325,8.940022371,-99999.0,'11133222,11144222,99999999' 
TABS,ioos:station:wmo:42044:1,2009-02-01T00:30:00Z,26.1914,-97.0507,2.0,13.85081413,9.733005702,-99999.0,'11133222,11111222,99999999' 
TABS,ioos:station:wmo:42044:1,2009-02-01T01:00:00Z,26.1914,-97.0507,2.0,11.45221849,7.907426889,-99999.0,'11133222,11111222,99999999' 
TABS,ioos:station:wmo:42044:1,2009-02-01T01:30:00Z,26.1914,-97.0507,2.0,13.71462493,9.068550049,-99999.0,'11133222,11111222,99999999' 
TABS,ioos:station:wmo:42044:1,2009-02-01T02:00:00Z,26.1914,-97.0507,2.0,16.11359101,9.368030743,-99999.0,'11133222,11111222,99999999' 
TABS,ioos:station:wmo:42044:1,2009-02-01T02:30:00Z,26.1914,-97.0507,2.0,9.692025736,9.028864823,-99999.0,'11133222,11111222,99999999' 
TABS,ioos:station:wmo:42044:1,2009-02-01T03:00:00Z,26.1914,-97.0507,2.0,21.80156896,10.39336808,-99999.0,'11111222,11111222,99999999' 
TABS,ioos:station:wmo:42044:1,2009-02-01T03:30:00Z,26.1914,-97.0507,2.0,0.428238268,9.370261469,-99999.0,'11133222,11111222,99999999' 
TABS,ioos:station:wmo:42044:1,2009-02-01T04:00:00Z,26.1914,-97.0507,2.0,11.52111389,11.71605736,-99999.0,'11111222,11111222,99999999' 
TABS,ioos:station:wmo:42044:1,2009-02-01T04:30:00Z,26.1914,-97.0507,2.0,14.35568771,10.44617155,-99999.0,'11111222,11111222,99999999' 
TABS,ioos:station:wmo:42044:1,2009-02-01T05:00:00Z,26.1914,-97.0507,2.0,359.4182802,10.83055862,-99999.0,'11111222,11144222,99999999' 
TABS,ioos:station:wmo:42044:1,2009-02-01T05:30:00Z,26.1914,-97.0507,2.0,358.6340437,12.16345757,-99999.0,'11111222,11111222,99999999' 
TABS,ioos:station:wmo:42044:1,2009-02-01T06:00:00Z,26.1914,-97.0507,2.0,356.9689669,13.04825659,-99999.0,'11111222,11111222,99999999' 
TABS,ioos:station:wmo:42044:1,2009-02-01T06:30:00Z,26.1914,-97.0507,2.0,2.576584256,14.90506625,-99999.0,'11111222,11111222,99999999' 
TABS,ioos:station:wmo:42044:1,2009-02-01T07:00:00Z,26.1914,-97.0507,2.0,2.429237057,14.39293229,-99999.0,'11111222,11111222,99999999' 
TABS,ioos:station:wmo:42044:1,2009-02-01T07:30:00Z,26.1914,-97.0507,2.0,6.191503403,15.29923528,-99999.0,'11111222,11111222,99999999' 
TABS,ioos:station:wmo:42044:1,2009-02-01T08:00:00Z,26.1914,-97.0507,2.0,359.0650204,14.09187709,-99999.0,'11111222,11144222,99999999' 
TABS,ioos:station:wmo:42044:1,2009-02-01T08:30:00Z,26.1914,-97.0507,2.0,4.444510967,14.45345979,-99999.0,'11111222,11111222,99999999' 
TABS,ioos:station:wmo:42044:1,2009-02-01T09:00:00Z,26.1914,-97.0507,2.0,359.4341463,14.17069159,-99999.0,'11111222,11144222,99999999' 
TABS,ioos:station:wmo:42044:1,2009-02-01T09:30:00Z,26.1914,-97.0507,2.0,355.7805553,16.44457661,-99999.0,'11111222,11111222,99999999' 
TABS,ioos:station:wmo:42044:1,2009-02-01T10:00:00Z,26.1914,-97.0507,2.0,7.578553499,13.95186367,-99999.0,'11111222,11111222,99999999' 
TABS,ioos:station:wmo:42044:1,2009-02-01T10:30:00Z,26.1914,-97.0507,2.0,1.91201174,14.3880089,-99999.0,'11111222,11111222,99999999' 
TABS,ioos:station:wmo:42044:1,2009-02-01T11:00:00Z,26.1914,-97.0507,2.0,6.897621887,14.98847557,-99999.0,'11111222,11111222,99999999' 
TABS,ioos:station:wmo:42044:1,2009-02-01T11:30:00Z,26.1914,-97.0507,2.0,2.023300222,15.57971117,-99999.0,'11111222,11111222,99999999' 
TABS,ioos:station:wmo:42044:1,2009-02-01T12:00:00Z,26.1914,-97.0507,2.0,8.964346669,17.58478035,-99999.0,'11111222,11111222,99999999' 
TABS,ioos:station:wmo:42044:1,2009-02-01T12:30:00Z,26.1914,-97.0507,2.0,9.311907255,15.6360417,-99999.0,'11111222,11111222,99999999' 
TABS,ioos:station:wmo:42044:1,2009-02-01T13:00:00Z,26.1914,-97.0507,2.0,0.639043882,17.04105924,-99999.0,'11111222,11111222,99999999' 
TABS,ioos:station:wmo:42044:1,2009-02-01T13:30:00Z,26.1914,-97.0507,2.0,17.99061939,15.89724819,-99999.0,'11111222,11111222,99999999' 
TABS,ioos:station:wmo:42044:1,2009-02-01T14:00:00Z,26.1914,-97.0507,2.0,15.20327486,17.38855946,-99999.0,'11111222,11111222,99999999' 
TABS,ioos:station:wmo:42044:1,2009-02-01T14:30:00Z,26.1914,-97.0507,2.0,17.06302773,14.79105135,-99999.0,'11111222,11111222,99999999' 
TABS,ioos:station:wmo:42044:1,2009-02-01T15:00:00Z,26.1914,-97.0507,2.0,12.04362834,17.15764553,-99999.0,'11111222,11111222,99999999' 
TABS,ioos:station:wmo:42044:1,2009-02-01T15:30:00Z,26.1914,-97.0507,2.0,26.15752911,15.08489642,-99999.0,'11111222,11111222,99999999' 
TABS,ioos:station:wmo:42044:1,2009-02-01T16:00:00Z,26.1914,-97.0507,2.0,10.74739627,15.17619847,-99999.0,'11111222,11111222,99999999' 
TABS,ioos:station:wmo:42044:1,2009-02-01T16:30:00Z,26.1914,-97.0507,2.0,23.95085498,14.80476275,-99999.0,'11111222,11111222,99999999' 
TABS,ioos:station:wmo:42044:1,2009-02-01T17:00:00Z,26.1914,-97.0507,2.0,20.75385547,14.92868715,-99999.0,'11111222,11111222,99999999' 
TABS,ioos:station:wmo:42044:1,2009-02-01T17:30:00Z,26.1914,-97.0507,2.0,20.68218728,15.96913273,-99999.0,'11111222,11111222,99999999' 
TABS,ioos:station:wmo:42044:1,2009-02-01T18:00:00Z,26.1914,-97.0507,2.0,23.07245948,15.48894444,-99999.0,'11111222,11111222,99999999' 
TABS,ioos:station:wmo:42044:1,2009-02-01T18:30:00Z,26.1914,-97.0507,2.0,30.64449387,14.45927038,-99999.0,'11111222,11111222,99999999' 
TABS,ioos:station:wmo:42044:1,2009-02-01T19:00:00Z,26.1914,-97.0507,2.0,27.39840024,14.14686184,-99999.0,'11111222,11111222,99999999' 
TABS,ioos:station:wmo:42044:1,2009-02-01T19:30:00Z,26.1914,-97.0507,2.0,20.08336495,14.18235876,-99999.0,'11111222,11111222,99999999' 
TABS,ioos:station:wmo:42044:1,2009-02-01T20:00:00Z,26.1914,-97.0507,2.0,20.3415033,13.11806388,-99999.0,'11111222,11111222,99999999' 
TABS,ioos:station:wmo:42044:1,2009-02-01T20:30:00Z,26.1914,-97.0507,2.0,21.84353354,15.21216618,-99999.0,'11111222,11111222,99999999' 
TABS,ioos:station:wmo:42044:1,2009-02-01T21:00:00Z,26.1914,-97.0507,2.0,20.08016622,14.65054606,-99999.0,'11111222,11111222,99999999' 
TABS,ioos:station:wmo:42044:1,2009-02-01T21:30:00Z,26.1914,-97.0507,2.0,24.32046913,14.95735605,-99999.0,'11111222,11111222,99999999' 
TABS,ioos:station:wmo:42044:1,2009-02-01T22:00:00Z,26.1914,-97.0507,2.0,16.01357885,15.04373956,-99999.0,'11111222,11111222,99999999' 
TABS,ioos:station:wmo:42044:1,2009-02-01T22:30:00Z,26.1914,-97.0507,2.0,17.9750622,15.35967773,-99999.0,'11111222,11111222,99999999' 
TABS,ioos:station:wmo:42044:1,2009-02-01T23:00:00Z,26.1914,-97.0507,2.0,14.32663448,15.80139867,-99999.0,'11111222,11111222,99999999' 
TABS,ioos:station:wmo:42044:1,2009-02-01T23:30:00Z,26.1914,-97.0507,2.0,29.47306661,14.63378283,-99999.0,'11111222,11111222,99999999' 
TABS,ioos:station:wmo:42044:1,2009-02-02T00:00:00Z,26.1914,-97.0507,2.0,26.99149854,15.02679274,-99999.0,'11111222,11111222,99999999' 
TABS,ioos:station:wmo:42044:1,2009-02-02T00:30:00Z,26.1914,-97.0507,2.0,28.58406166,12.05989221,-99999.0,'11111222,11111222,99999999' 
TABS,ioos:station:wmo:42044:1,2009-02-02T01:00:00Z,26.1914,-97.0507,2.0,40.92135675,12.62554949,-99999.0,'11111222,11111222,99999999' 
TABS,ioos:station:wmo:42044:1,2009-02-02T01:30:00Z,26.1914,-97.0507,2.0,28.61060322,13.53236121,-99999.0,'11111222,11111222,99999999' 
TABS,ioos:station:wmo:42044:1,2009-02-02T02:00:00Z,26.1914,-97.0507,2.0,41.27462623,13.38553324,-99999.0,'11111222,11111222,99999999' 
TABS,ioos:station:wmo:42044:1,2009-02-02T02:30:00Z,26.1914,-97.0507,2.0,48.74092282,13.98100497,-99999.0,'11111222,11111222,99999999' 
TABS,ioos:station:wmo:42044:1,2009-02-02T03:00:00Z,26.1914,-97.0507,2.0,49.66389594,10.78372848,-99999.0,'11111222,11111222,99999999' 
TABS,ioos:station:wmo:42044:1,2009-02-02T03:30:00Z,26.1914,-97.0507,2.0,43.22810268,15.54964308,-99999.0,'11111222,11111222,99999999' 
TABS,ioos:station:wmo:42044:1,2009-02-02T04:00:00Z,26.1914,-97.0507,2.0,54.43658018,12.89535188,-99999.0,'11111222,11111222,99999999' 
TABS,ioos:station:wmo:42044:1,2009-02-02T04:30:00Z,26.1914,-97.0507,2.0,60.18431543,14.038262,-99999.0,'11111222,11111222,99999999' 
TABS,ioos:station:wmo:42044:1,2009-02-02T05:00:00Z,26.1914,-97.0507,2.0,63.89301739,11.74867652,-99999.0,'11111222,11111222,99999999' 
TABS,ioos:station:wmo:42044:1,2009-02-02T05:30:00Z,26.1914,-97.0507,2.0,58.32537915,13.40707649,-99999.0,'11111222,11111222,99999999' 
TABS,ioos:station:wmo:42044:1,2009-02-02T06:00:00Z,26.1914,-97.0507,2.0,73.03199595,14.69992177,-99999.0,'11111222,11111222,99999999' 
TABS,ioos:station:wmo:42044:1,2009-02-02T06:30:00Z,26.1914,-97.0507,2.0,74.30720242,15.26914863,-99999.0,'11111222,11111222,99999999' 
TABS,ioos:station:wmo:42044:1,2009-02-02T07:00:00Z,26.1914,-97.0507,2.0,79.8913568,13.84491965,-99999.0,'11111222,11111222,99999999' 
TABS,ioos:station:wmo:42044:1,2009-02-02T07:30:00Z,26.1914,-97.0507,2.0,82.61168074,13.76427986,-99999.0,'11111222,11111222,99999999' 
TABS,ioos:station:wmo:42044:1,2009-02-02T08:00:00Z,26.1914,-97.0507,2.0,82.12449944,11.45807139,-99999.0,'11111222,11111222,99999999' 
TABS,ioos:station:wmo:42044:1,2009-02-02T08:30:00Z,26.1914,-97.0507,2.0,90.75845202,9.820860451,-99999.0,'11133222,11111222,99999999' 
TABS,ioos:station:wmo:42044:1,2009-02-02T09:00:00Z,26.1914,-97.0507,2.0,90.79487258,9.370901771,-99999.0,'11133222,11111222,99999999' 
TABS,ioos:station:wmo:42044:1,2009-02-02T09:30:00Z,26.1914,-97.0507,2.0,92.33730039,8.827343881,-99999.0,'11133222,11111222,99999999' 
TABS,ioos:station:wmo:42044:1,2009-02-02T10:00:00Z,26.1914,-97.0507,2.0,94.17138896,6.186388284,-99999.0,'11133222,11111222,99999999' 
TABS,ioos:station:wmo:42044:1,2009-02-02T10:30:00Z,26.1914,-97.0507,2.0,87.01609631,7.29989726,-99999.0,'11133222,11111222,99999999' 
TABS,ioos:station:wmo:42044:1,2009-02-02T11:00:00Z,26.1914,-97.0507,2.0,90.46962592,2.440081966,-99999.0,'11133222,11111222,99999999' 
TABS,ioos:station:wmo:42044:1,2009-02-02T11:30:00Z,26.1914,-97.0507,2.0,86.61262112,3.215618137,-99999.0,'11133222,11111222,99999999' 
TABS,ioos:station:wmo:42044:1,2009-02-02T12:00:00Z,26.1914,-97.0507,2.0,136.7733356,8.453975396,-99999.0,'11133222,11111222,99999999' 
TABS,ioos:station:wmo:42044:1,2009-02-02T12:30:00Z,26.1914,-97.0507,2.0,164.9445597,8.046179217,-99999.0,'11133222,11111222,99999999' 
TABS,ioos:station:wmo:42044:1,2009-02-02T16:30:00Z,26.1914,-97.0507,2.0,173.7942647,29.60346095,-99999.0,'11111222,11111222,99999999' 
TABS,ioos:station:wmo:42044:1,2009-02-02T17:00:00Z,26.1914,-97.0507,2.0,172.4746073,31.07766079,-99999.0,'11111222,11111222,99999999' 
TABS,ioos:station:wmo:42044:1,2009-02-02T17:30:00Z,26.1914,-97.0507,2.0,181.8326248,31.26599591,-99999.0,'11111222,11111222,99999999' 
TABS,ioos:station:wmo:42044:1,2009-02-02T18:00:00Z,26.1914,-97.0507,2.0,177.5063756,32.18046768,-99999.0,'11111222,11111222,99999999' 
TABS,ioos:station:wmo:42044:1,2009-02-02T18:30:00Z,26.1914,-97.0507,2.0,174.2283138,38.38457633,-99999.0,'11111222,11111222,99999999' 
TABS,ioos:station:wmo:42044:1,2009-02-02T19:00:00Z,26.1914,-97.0507,2.0,181.8717446,34.89862461,-99999.0,'11111222,11111222,99999999' 
TABS,ioos:station:wmo:42044:1,2009-02-02T19:30:00Z,26.1914,-97.0507,2.0,180.4393169,40.41118904,-99999.0,'11111222,11111222,99999999' 
TABS,ioos:station:wmo:42044:1,2009-02-02T20:00:00Z,26.1914,-97.0507,2.0,174.6055815,39.46477163,-99999.0,'11111222,11111222,99999999' 
TABS,ioos:station:wmo:42044:1,2009-02-02T20:30:00Z,26.1914,-97.0507,2.0,185.1773589,43.10588127,-99999.0,'11111222,11111222,99999999' 
TABS,ioos:station:wmo:42044:1,2009-02-02T21:00:00Z,26.1914,-97.0507,2.0,176.8381274,40.25126706,-99999.0,'11111222,11111222,99999999' 
TABS,ioos:station:wmo:42044:1,2009-02-02T21:30:00Z,26.1914,-97.0507,2.0,183.9525999,38.73213782,-99999.0,'11111222,11111222,99999999' 
TABS,ioos:station:wmo:42044:1,2009-02-02T22:00:00Z,26.1914,-97.0507,2.0,178.3515538,39.28625459,-99999.0,'11111222,11111222,99999999' 
TABS,ioos:station:wmo:42044:1,2009-02-02T22:30:00Z,26.1914,-97.0507,2.0,183.0791817,37.97483377,-99999.0,'11111222,11111222,99999999' 
TABS,ioos:station:wmo:42044:1,2009-02-02T23:00:00Z,26.1914,-97.0507,2.0,185.2057804,40.33639176,-99999.0,'11111222,11111222,99999999' 
TABS,ioos:station:wmo:42044:1,2009-02-02T23:30:00Z,26.1914,-97.0507,2.0,183.1542885,40.16085283,-99999.0,'11111222,11111222,99999999' 
TABS,ioos:station:wmo:42044:1,2009-02-03T00:00:00Z,26.1914,-97.0507,2.0,180.9355151,37.96506289,-99999.0,'11111222,11111222,99999999' 
TABS,ioos:station:wmo:42044:1,2009-02-03T00:30:00Z,26.1914,-97.0507,2.0,175.843122,35.04217602,-99999.0,'11111222,11111222,99999999' 
TABS,ioos:station:wmo:42044:1,2009-02-03T01:00:00Z,26.1914,-97.0507,2.0,176.2774791,36.9679875,-99999.0,'11111222,11111222,99999999' 
TABS,ioos:station:wmo:42044:1,2009-02-03T01:30:00Z,26.1914,-97.0507,2.0,185.5776619,31.79052846,-99999.0,'11111222,11111222,99999999' 
TABS,ioos:station:wmo:42044:1,2009-02-03T02:00:00Z,26.1914,-97.0507,2.0,183.4956879,27.55126857,-99999.0,'11111222,11111222,99999999' 
TABS,ioos:station:wmo:42044:1,2009-02-03T02:30:00Z,26.1914,-97.0507,2.0,183.1273828,30.4253184,-99999.0,'11111222,11111222,99999999' 
TABS,ioos:station:wmo:42044:1,2009-02-03T03:00:00Z,26.1914,-97.0507,2.0,180.9599619,26.85377068,-99999.0,'11111222,11111222,99999999' 
TABS,ioos:station:wmo:42044:1,2009-02-03T03:30:00Z,26.1914,-97.0507,2.0,179.4086259,23.26123814,-99999.0,'11111222,11111222,99999999' 
TABS,ioos:station:wmo:42044:1,2009-02-03T04:00:00Z,26.1914,-97.0507,2.0,171.3182597,22.9226351,-99999.0,'11111222,11111222,99999999' 
TABS,ioos:station:wmo:42044:1,2009-02-03T04:30:00Z,26.1914,-97.0507,2.0,182.6315755,20.47159251,-99999.0,'11111222,11111222,99999999' 
TABS,ioos:station:wmo:42044:1,2009-02-03T05:00:00Z,26.1914,-97.0507,2.0,175.902437,20.8532995,-99999.0,'11111222,11111222,99999999' 
TABS,ioos:station:wmo:42044:1,2009-02-03T05:30:00Z,26.1914,-97.0507,2.0,188.1608411,18.31548252,-99999.0,'11111222,11111222,99999999' 
TABS,ioos:station:wmo:42044:1,2009-02-03T06:00:00Z,26.1914,-97.0507,2.0,179.376238,15.62092507,-99999.0,'11111222,11111222,99999999' 
TABS,ioos:station:wmo:42044:1,2009-02-03T06:30:00Z,26.1914,-97.0507,2.0,194.3811505,14.0915755,-99999.0,'11111222,11111222,99999999' 
TABS,ioos:station:wmo:42044:1,2009-02-03T07:00:00Z,26.1914,-97.0507,2.0,191.9637066,12.54244394,-99999.0,'11111222,11111222,99999999' 
TABS,ioos:station:wmo:42044:1,2009-02-03T07:30:00Z,26.1914,-97.0507,2.0,197.1221644,12.8390537,-99999.0,'11111222,11111222,99999999' 
TABS,ioos:station:wmo:42044:1,2009-02-03T08:00:00Z,26.1914,-97.0507,2.0,180.3664767,12.500256,-99999.0,'11111222,11111222,99999999' 
TABS,ioos:station:wmo:42044:1,2009-02-03T08:30:00Z,26.1914,-97.0507,2.0,198.6177478,9.897979592,-99999.0,'11133222,11111222,99999999' 
TABS,ioos:station:wmo:42044:1,2009-02-03T09:00:00Z,26.1914,-97.0507,2.0,192.9229917,6.617620418,-99999.0,'11133222,11111222,99999999' 
TABS,ioos:station:wmo:42044:1,2009-02-03T09:30:00Z,26.1914,-97.0507,2.0,211.6952136,7.251551558,-99999.0,'11133222,11111222,99999999' 
TABS,ioos:station:wmo:42044:1,2009-02-03T10:00:00Z,26.1914,-97.0507,2.0,212.7274944,4.624078287,-99999.0,'11133222,11111222,99999999' 
TABS,ioos:station:wmo:42044:1,2009-02-03T10:30:00Z,26.1914,-97.0507,2.0,243.3618799,3.52404597,-99999.0,'11133222,11111222,99999999' 
TABS,ioos:station:wmo:42044:1,2009-02-03T11:00:00Z,26.1914,-97.0507,2.0,255.4106945,3.017283547,-99999.0,'11133222,11111222,99999999' 
TABS,ioos:station:wmo:42044:1,2009-02-03T11:30:00Z,26.1914,-97.0507,2.0,249.9724033,4.438389347,-99999.0,'11133222,11111222,99999999' 
TABS,ioos:station:wmo:42044:1,2009-02-03T12:00:00Z,26.1914,-97.0507,2.0,276.0094128,0.191049732,-99999.0,'11133222,11111222,99999999' 
TABS,ioos:station:wmo:42044:1,2009-02-03T12:30:00Z,26.1914,-97.0507,2.0,250.064206,2.053022163,-99999.0,'11133222,11111222,99999999' 
TABS,ioos:station:wmo:42044:1,2009-02-03T13:00:00Z,26.1914,-97.0507,2.0,34.34622754,0.726704892,-99999.0,'11133222,11111222,99999999' 
TABS,ioos:station:wmo:42044:1,2009-02-03T13:30:00Z,26.1914,-97.0507,2.0,345.0316875,2.981157493,-99999.0,'11133222,11111222,99999999' 
TABS,ioos:station:wmo:42044:1,2009-02-03T14:00:00Z,26.1914,-97.0507,2.0,321.4061609,2.725233935,-99999.0,'11133222,11111222,99999999' 
TABS,ioos:station:wmo:42044:1,2009-02-03T14:30:00Z,26.1914,-97.0507,2.0,125.1806171,0.746324326,-99999.0,'11133222,11111222,99999999' 
TABS,ioos:station:wmo:42044:1,2009-02-03T15:00:00Z,26.1914,-97.0507,2.0,349.683771,4.411314997,-99999.0,'11133222,11111222,99999999' 
TABS,ioos:station:wmo:42044:1,2009-02-03T15:30:00Z,26.1914,-97.0507,2.0,345.8851888,5.289706986,-99999.0,'11133222,11111222,99999999' 
TABS,ioos:station:wmo:42044:1,2009-02-03T16:00:00Z,26.1914,-97.0507,2.0,355.0641979,2.208189303,-99999.0,'11133222,11111222,99999999' 
TABS,ioos:station:wmo:42044:1,2009-02-03T16:30:00Z,26.1914,-97.0507,2.0,56.14607566,5.816055364,-99999.0,'11133222,11111222,99999999' 
TABS,ioos:station:wmo:42044:1,2009-02-03T17:00:00Z,26.1914,-97.0507,2.0,50.87405301,1.727338994,-99999.0,'11133222,11111222,99999999' 
TABS,ioos:station:wmo:42044:1,2009-02-03T17:30:00Z,26.1914,-97.0507,2.0,110.3325612,2.100904567,-99999.0,'11133222,11111222,99999999' 
TABS,ioos:station:wmo:42044:1,2009-02-03T18:00:00Z,26.1914,-97.0507,2.0,91.31807432,5.651495377,-99999.0,'11133222,11111222,99999999' 
TABS,ioos:station:wmo:42044:1,2009-02-03T18:30:00Z,26.1914,-97.0507,2.0,54.33356855,3.618798143,-99999.0,'11133222,11111222,99999999' 
TABS,ioos:station:wmo:42044:1,2009-02-03T19:00:00Z,26.1914,-97.0507,2.0,30.16020077,3.423448554,-99999.0,'11133222,11111222,99999999' 
TABS,ioos:station:wmo:42044:1,2009-02-03T19:30:00Z,26.1914,-97.0507,2.0,83.87864689,3.469783855,-99999.0,'11133222,11111222,99999999' 
TABS,ioos:station:wmo:42044:1,2009-02-03T20:00:00Z,26.1914,-97.0507,2.0,13.75715941,2.985649008,-99999.0,'11133222,11111222,99999999' 
TABS,ioos:station:wmo:42044:1,2009-02-03T20:30:00Z,26.1914,-97.0507,2.0,40.99061306,3.033842448,-99999.0,'11133222,11111222,99999999' 
TABS,ioos:station:wmo:42044:1,2009-02-03T21:00:00Z,26.1914,-97.0507,2.0,47.37194187,3.58810535,-99999.0,'11133222,11111222,99999999' 
TABS,ioos:station:wmo:42044:1,2009-02-03T21:30:00Z,26.1914,-97.0507,2.0,0.809036428,4.250423508,-99999.0,'11133222,11111222,99999999' 
TABS,ioos:station:wmo:42044:1,2009-02-03T22:00:00Z,26.1914,-97.0507,2.0,32.07413633,1.770197729,-99999.0,'11133222,11111222,99999999' 
TABS,ioos:station:wmo:42044:1,2009-02-03T22:30:00Z,26.1914,-97.0507,2.0,356.7807231,1.602529251,-99999.0,'11133222,11111222,99999999' 
TABS,ioos:station:wmo:42044:1,2009-02-03T23:00:00Z,26.1914,-97.0507,2.0,305.872046,3.78857493,-99999.0,'11133222,11111222,99999999' 
TABS,ioos:station:wmo:42044:1,2009-02-03T23:30:00Z,26.1914,-97.0507,2.0,316.8942364,6.204715948,-99999.0,'11133222,11111222,99999999' 
TABS,ioos:station:wmo:42044:1,2009-02-04T00:00:00Z,26.1914,-97.0507,2.0,314.4242768,9.143352777,-99999.0,'11133222,11111222,99999999' 
TABS,ioos:station:wmo:42044:1,2009-02-04T00:30:00Z,26.1914,-97.0507,2.0,308.7422477,10.8978163,-99999.0,'11111222,11111222,99999999' 
TABS,ioos:station:wmo:42044:1,2009-02-04T01:00:00Z,26.1914,-97.0507,2.0,329.7961906,8.666585256,-99999.0,'11133222,11111222,99999999' 
TABS,ioos:station:wmo:42044:1,2009-02-04T01:30:00Z,26.1914,-97.0507,2.0,314.6995539,10.77645582,-99999.0,'11111222,11111222,99999999' 
TABS,ioos:station:wmo:42044:1,2009-02-04T02:00:00Z,26.1914,-97.0507,2.0,335.5368708,12.19477347,-99999.0,'11111222,11111222,99999999' 
TABS,ioos:station:wmo:42044:1,2009-02-04T02:30:00Z,26.1914,-97.0507,2.0,338.0115841,12.49921998,-99999.0,'11111222,11111222,99999999' 
TABS,ioos:station:wmo:42044:1,2009-02-04T04:30:00Z,26.1914,-97.0507,2.0,348.7777786,14.130184,-99999.0,'11111222,11111222,99999999' 
TABS,ioos:station:wmo:42044:1,2009-02-04T05:00:00Z,26.1914,-97.0507,2.0,4.14050938,13.43506234,-99999.0,'11111222,11111222,99999999' 
TABS,ioos:station:wmo:42044:1,2009-02-04T05:30:00Z,26.1914,-97.0507,2.0,356.4189779,14.56844878,-99999.0,'11111222,11111222,99999999' 
TABS,ioos:station:wmo:42044:1,2009-02-04T06:00:00Z,26.1914,-97.0507,2.0,358.6663175,15.89430716,-99999.0,'11111222,11111222,99999999' 
TABS,ioos:station:wmo:42044:1,2009-02-04T06:30:00Z,26.1914,-97.0507,2.0,352.8435907,15.73256813,-99999.0,'11111222,11111222,99999999' 
TABS,ioos:station:wmo:42044:1,2009-02-04T07:00:00Z,26.1914,-97.0507,2.0,9.368871162,16.09468235,-99999.0,'11111222,11111222,99999999' 
TABS,ioos:station:wmo:42044:1,2009-02-04T07:30:00Z,26.1914,-97.0507,2.0,2.853816191,16.27017517,-99999.0,'11111222,11111222,99999999' 
TABS,ioos:station:wmo:42044:1,2009-02-04T08:00:00Z,26.1914,-97.0507,2.0,358.5050682,18.39626321,-99999.0,'11111222,11111222,99999999' 
TABS,ioos:station:wmo:42044:1,2009-02-04T08:30:00Z,26.1914,-97.0507,2.0,1.463422356,18.40600174,-99999.0,'11111222,11111222,99999999' 
TABS,ioos:station:wmo:42044:1,2009-02-04T09:00:00Z,26.1914,-97.0507,2.0,358.722563,19.28479453,-99999.0,'11111222,11111222,99999999' 
TABS,ioos:station:wmo:42044:1,2009-02-04T09:30:00Z,26.1914,-97.0507,2.0,7.332746457,18.49121954,-99999.0,'11111222,11111222,99999999' 
TABS,ioos:station:wmo:42044:1,2009-02-04T10:00:00Z,26.1914,-97.0507,2.0,355.1858348,21.56608912,-99999.0,'11111222,11111222,99999999' 
TABS,ioos:station:wmo:42044:1,2009-02-04T10:30:00Z,26.1914,-97.0507,2.0,355.9913018,22.8859979,-99999.0,'11111222,11111222,99999999' 
TABS,ioos:station:wmo:42044:1,2009-02-04T11:00:00Z,26.1914,-97.0507,2.0,0.931560267,22.76300727,-99999.0,'11111222,11111222,99999999' 
TABS,ioos:station:wmo:42044:1,2009-02-04T11:30:00Z,26.1914,-97.0507,2.0,0.317341789,21.6803321,-99999.0,'11111222,11111222,99999999' 
TABS,ioos:station:wmo:42044:1,2009-02-04T12:00:00Z,26.1914,-97.0507,2.0,3.248287162,21.88515707,-99999.0,'11111222,11111222,99999999' 
TABS,ioos:station:wmo:42044:1,2009-02-04T12:30:00Z,26.1914,-97.0507,2.0,4.598091287,23.82667832,-99999.0,'11111222,11111222,99999999' 
TABS,ioos:station:wmo:42044:1,2009-02-04T13:00:00Z,26.1914,-97.0507,2.0,6.272941094,22.51479514,-99999.0,'11111222,11111222,99999999' 
TABS,ioos:station:wmo:42044:1,2009-02-04T13:30:00Z,26.1914,-97.0507,2.0,359.6079387,24.83058195,-99999.0,'11111222,11144222,99999999' 
TABS,ioos:station:wmo:42044:1,2009-02-04T14:00:00Z,26.1914,-97.0507,2.0,358.7708788,23.30536419,-99999.0,'11111222,11111222,99999999' 
TABS,ioos:station:wmo:42044:1,2009-02-04T14:30:00Z,26.1914,-97.0507,2.0,358.7524912,21.12500888,-99999.0,'11111222,11111222,99999999' 
TABS,ioos:station:wmo:42044:1,2009-02-04T15:00:00Z,26.1914,-97.0507,2.0,358.5719418,22.46698022,-99999.0,'11111222,11111222,99999999' 
TABS,ioos:station:wmo:42044:1,2009-02-04T15:30:00Z,26.1914,-97.0507,2.0,358.2370706,23.40107903,-99999.0,'11111222,11111222,99999999' 
TABS,ioos:station:wmo:42044:1,2009-02-04T16:00:00Z,26.1914,-97.0507,2.0,1.414947795,22.27679061,-99999.0,'11111222,11111222,99999999' 
TABS,ioos:station:wmo:42044:1,2009-02-04T16:30:00Z,26.1914,-97.0507,2.0,5.550171071,23.78148229,-99999.0,'11111222,11111222,99999999' 
TABS,ioos:station:wmo:42044:1,2009-02-04T17:00:00Z,26.1914,-97.0507,2.0,7.602736954,23.96062186,-99999.0,'11111222,11111222,99999999' 
TABS,ioos:station:wmo:42044:1,2009-02-04T17:30:00Z,26.1914,-97.0507,2.0,10.72614938,22.51334049,-99999.0,'11111222,11111222,99999999' 
TABS,ioos:station:wmo:42044:1,2009-02-04T18:00:00Z,26.1914,-97.0507,2.0,15.16394848,22.55532975,-99999.0,'11111222,11111222,99999999' 
TABS,ioos:station:wmo:42044:1,2009-02-04T18:30:00Z,26.1914,-97.0507,2.0,17.78599829,21.21391996,-99999.0,'11111222,11111222,99999999' 
TABS,ioos:station:wmo:42044:1,2009-02-04T19:00:00Z,26.1914,-97.0507,2.0,17.48555154,20.03578049,-99999.0,'11111222,11111222,99999999' 
TABS,ioos:station:wmo:42044:1,2009-02-04T19:30:00Z,26.1914,-97.0507,2.0,16.6307196,17.57516714,-99999.0,'11111222,11111222,99999999' 
TABS,ioos:station:wmo:42044:1,2009-02-04T20:00:00Z,26.1914,-97.0507,2.0,16.79594251,15.91909545,-99999.0,'11111222,11111222,99999999' 
TABS,ioos:station:wmo:42044:1,2009-02-04T20:30:00Z,26.1914,-97.0507,2.0,18.18197064,12.88324493,-99999.0,'11111222,11111222,99999999' 
TABS,ioos:station:wmo:42044:1,2009-02-04T21:00:00Z,26.1914,-97.0507,2.0,24.86878604,10.27252647,-99999.0,'11111222,11111222,99999999' 